sat.trackr.live / text

‹ back to catalog

STARLINK-2727

NORAD 48652 · 2021-044Q

PAYLOAD ACTIVE UNKNOWN

§ Identity

Operator
Country
US
Launch date
2021-05-26
Launch site
AFETR
Launch vehicle
Mass (kg)
RCS (m²)

Purposes: comms

External: N2YO · Heavens-Above · Gunter

§ Orbital elements

Epoch: 2026-05-25T03:30:15.481728Z

Period
91.69 min
Inclination
53.0486°
Eccentricity
0.0001266
Mean motion
15.70535361 rev/d
Perigee alt
356.5 km
Apogee alt
358.2 km
Semi-major
6,735.5 km
B*
6.9953e-4
RAAN
104.7867°
Arg perigee
123.3752°
Mean anomaly
236.7386°
Rev number
27,570

§ Raw data

STARLINK-27271 48652U 21044Q   26145.14601252  .00088058  00000+0  69953-3 0  99982 48652  53.0486 104.7867 0001266 123.3752 236.7386 15.70535361275706

JSON: /api/v1/satellites/48652 · /tle

For live sub-satellite position, see the globe view (requires WebGL).

§ Visibility from observer

Set your observer location to see the next 7 days of passes ≥ 10°. The values pass through the URL so the page stays shareable.

No JS? Fill the form by hand. The geolocation button needs JavaScript.